Location: *
(32.8140°S, 174.6161°E)
Time: 18:46:56
(UTC+00:00)

Meteor 2-11 Rocket - Pass Details

Date: 10 December 2019
Orbit: 939 x 957 km, 82.5° (Epoch: 27 January)

Event Time Altitude Azimuth Distance (km) Brightness Sun altitude
Rises 16:12:07 0° 189° (S) 3,633 7.9 -10.5°
Reaches altitude 10° 16:14:38 10° 191° (S) 2,681 7.2 -10.1°
Maximum altitude 16:20:44 73° 274° (W) 988 4.4 -9.0°
Drops below altitude 10° 16:26:46 10° 358° (N) 2,652 6.4 -8.0°
Sets 16:29:15 0° 359° (N) 3,590 7.1 -7.6°
